Погода в Отскочном

Россия / Липецкая область     52°05′56″N   39°07′45″E
темп.,
°C
ветер,
м/с
пор.,
м/с
влажн.,
%
обл.,
%
осадки,
мм/ч
давл.,
гПа
погр.,
м
13 мая, чт
чт1300:00+10вюв41179100 0.0 1017360
03:00+8вюв3893100 0.0 1017170
06:00+10вюв398880 0.0 1017321
09:00+15юв6106418 0.0 1016884
12:00+16ююв4764100 0.1 1016942
15:00+19ю486299 0.5 10151396
18:00+17ююз367759 1.3 1015396
21:00+14ююв2285100 2.1 101616
14 мая, пт
пт1400:00+13юв2289100 0.1 101618
03:00+13юв2595100 0.7 101695
06:00+13вюв3892100 0.4 1016186
09:00+18юв51072100 0.4 1015474
12:00+24юв6957100 0.0 10141309
15:00+24юв4655100 0.0 1012928
18:00+21юв2575100 0.1 101298
21:00+19в4108399 0.1 1011179
15 мая, сб
сб1500:00+17ююв389083 0.0 1011172
03:00+15ююв379581 0.0 1010144
06:00+16ю2493100 0.0 1011141
09:00+20ю4579100 0.0 1012448
12:00+23ююз355944 0.4 10121234
15:00+24юз57515 0.4 10121756
18:00+22юз47625 0.0 1013576
21:00+17юз22750 0.0 101420
16 мая, вс
вс1600:00+15юз11796 0.0 101411
03:00+14ю11842 0.0 101511
06:00+15юв1182100 0.0 101525
09:00+20вюв126493 0.0 1015386
12:00+24всв224451 0.0 10141451
15:00+25всв3347100 0.0 10141758
18:00+24всв3563100 0.0 1013293
21:00+18всв337999 0.0 101342
17 мая, пн
пн1700:00+16в348085 0.0 101353
03:00+15всв368185 0.0 1013107
06:00+16в268336 0.0 1012125
09:00+23юв4949100 0.0 1012513
12:00+25юв684398 0.0 1011943
15:00+27вюв694367 0.0 10111234
18:00+24вюв61257100 0.0 1010640
21:00+21вюв5166053 0.0 1010421